Weather History for Janesville, WI

Change the Weather History Date:

Thursday, May 9, 2013

  Actual Average Record
Temperature  
Mean Temperature 57 °F -  
Max Temperature 66 °F 64 °F 84 °F (1993)
Min Temperature 48 °F 45 °F 36 °F (1989)
Degree Days  
Heating Degree Days 8    
Growing Degree Days 7 (Base 50)    
Moisture  
Dew Point 49 °F    
Average Humidity 73    
Maximum Humidity 88    
Minimum Humidity 52    
Precipitation  
Precipitation 0.28 in - - ()
Sea Level Pressure  
Sea Level Pressure 29.91 in    
Wind  
Wind Speed 5 mph (ENE)    
Max Wind Speed 22 mph    
Max Gust Speed 31 mph    
Visibility 7 miles    
Events Rain    
Averages and records for this station are not official NWS values.
T = Trace of Precipitation, MM = Missing Value Source: NWS Daily Summary

Daily Weather History Graph

Daily Weather History Graph

Search for Another Location

Airport:

Trip Planner

Search our weather history database for the weather conditions in past years. The results will help you decide how hot, cold, wet, or windy it might be!

Date:

Astronomy

May. 09, 2013 Rise Set
Actual Time 5:40 AM CDT 8:05 PM CDT
Civil Twilight 5:08 AM CDT 8:37 PM CDT
Nautical Twilight 4:29 AM CDT 9:16 PM CDT
Astronomical Twilight 3:45 AM CDT 10:01 PM CDT
Moon 5:25 AM CDT (5/9) 8:00 PM CDT (5/9)
Length of Visible Light 15h 28m
Length of Day
14h 25m
Waning Crescent, 0% of the Moon is Illuminated
May 9
Waning Crescent
May 9
New
May 17
First Quarter
May 24
Full
May 31
Last Quarter

Hourly Weather History & Observations

Time (CDT) Temp. Dew Point Humidity Pressure Visibility Wind Dir Wind Speed Gust Speed Precip Events Conditions
12:15 AM 60.8 °F 44.6 °F 55% 29.96 in 10.0 mi Calm Calm - N/A   Clear
12:35 AM 60.8 °F 44.6 °F 55% 29.95 in 10.0 mi Calm Calm - N/A   Clear
12:55 AM 62.6 °F 44.6 °F 52% 29.95 in 10.0 mi Calm Calm - N/A   Clear
1:35 AM 59.0 °F 50.0 °F 72% 29.95 in 10.0 mi Calm Calm - N/A   Clear
1:55 AM 60.8 °F 46.4 °F 59% 29.95 in 10.0 mi Calm Calm - N/A   Clear
3:15 AM 62.6 °F 46.4 °F 55% 29.95 in 7.0 mi Calm Calm - N/A   Scattered Clouds
3:35 AM 59.0 °F 48.2 °F 67% 29.95 in 10.0 mi Calm Calm - N/A   Scattered Clouds
3:55 AM 59.0 °F 48.2 °F 67% 29.94 in 10.0 mi Calm Calm - N/A   Scattered Clouds
4:35 AM 59.0 °F 50.0 °F 72% 29.94 in 10.0 mi WNW 3.5 mph - N/A   Mostly Cloudy
4:55 AM 59.0 °F 48.2 °F 67% 29.94 in 7.0 mi Calm Calm - N/A   Scattered Clouds
5:35 AM 59.0 °F 48.2 °F 67% 29.93 in 10.0 mi North 3.5 mph - N/A   Scattered Clouds
5:45 AM 59.0 °F 48.2 °F 67% 29.95 in 10.0 mi SSW 9.2 mph 18.4 mph N/A   Mostly Cloudy
6:45 AM 62.6 °F 51.8 °F 68% 29.95 in 10.0 mi NW 4.6 mph - N/A   Mostly Cloudy
7:45 AM 62.6 °F 51.8 °F 68% 29.94 in 10.0 mi Variable 4.6 mph - N/A   Overcast
8:45 AM 64.4 °F 51.8 °F 64% 29.93 in 10.0 mi NE 4.6 mph - N/A   Overcast
10:45 AM 64.4 °F 53.6 °F 68% 29.95 in 10.0 mi Variable 4.6 mph - N/A   Overcast
12:45 PM 66.2 °F 53.6 °F 64% 29.93 in 7.0 mi Calm Calm - N/A Rain Light Rain
4:45 PM 62.6 °F 55.4 °F 77% 29.88 in 5.0 mi ENE 12.7 mph - N/A Rain Light Rain
5:45 PM 62.6 °F 59.0 °F 88% 29.85 in 5.0 mi ESE 12.7 mph 18.4 mph N/A Rain Light Rain
6:45 PM 62.6 °F 57.2 °F 82% 29.85 in 4.0 mi SSE 8.1 mph - N/A Rain Light Rain
7:45 PM 62.6 °F 57.2 °F 82% 29.87 in 4.0 mi East 11.5 mph - N/A Rain Light Rain
8:45 PM 51.8 °F 48.2 °F 88% 29.86 in 3.0 mi East 17.3 mph 23.0 mph N/A Rain Rain
9:15 PM 51.8 °F 46.4 °F 82% 29.87 in 5.0 mi East 20.7 mph 25.3 mph 0.03 in   Clear
9:35 PM 51.8 °F 46.4 °F 82% 29.87 in 5.0 mi East 18.4 mph 25.3 mph 0.07 in   Scattered Clouds
9:55 PM 50.0 °F 46.4 °F 87% 29.87 in 4.0 mi ENE 20.7 mph 26.5 mph 0.10 in   Scattered Clouds
10:15 PM 50.0 °F 44.6 °F 82% 29.86 in 5.0 mi ENE 21.9 mph 31.1 mph 0.03 in   Clear
10:35 PM 48.2 °F 44.6 °F 87% 29.86 in 5.0 mi East 21.9 mph 26.5 mph 0.07 in   Scattered Clouds
10:55 PM 48.2 °F 44.6 °F 87% 29.86 in 5.0 mi ENE 17.3 mph 27.6 mph 0.11 in   Scattered Clouds
11:15 PM 48.2 °F 44.6 °F 87% 29.85 in 7.0 mi ENE 16.1 mph 25.3 mph 0.03 in   Scattered Clouds
11:35 PM 48.2 °F 44.6 °F 87% 29.85 in 5.0 mi ENE 17.3 mph 24.2 mph 0.07 in   Overcast